Regional Weather Roundup
Issued by NWS

Home | Current Version | Previous Version | Graphics & Text | Print | Product List | Glossary On
Versions: 1 2 3 4 5 6 7 8 9 10 11 12 13 14 15 16 17 18 19 20 21 22 23 24 25 26 27 28 29 30 31 32 33 34 35 36 37 38 39 40 41 42 43 44 45 46 47 48 49 50
000
ASUS43 KLSX 030659
RWRMO

WEATHER SUMMARY FOR MISSOURI
NATIONAL WEATHER SERVICE SPRINGFIELD MO
100 AM CST TUE MAR 03 2015

NOTE: "FAIR" INDICATES FEW OR NO CLOUDS BELOW 12,000 FEET WITH NO
       SIGNIFICANT WEATHER AND/OR OBSTRUCTIONS TO VISIBILITY.
       CURRENT SKY AND/OR WEATHER CONDITIONS ARE NOT AVAILABLE FOR
       CHILLICOTHE AND FARMINGTON.

MOZ001>031-035>038-043-044-053-054-030800-
...NORTHERN AND WESTERN MISSOURI...

CITY           SKY/WX    TMP DP  RH WIND       PRES   REMARKS
KANSAS CTY INT CLOUDY    34  28  79 S13       29.94F WCI  25
KANSAS C DTWN  CLOUDY    35  29  78 S12G21    29.97F WCI  27
LEE`S SUMMIT   CLOUDY    33  29  85 S10       29.97F WCI  25
ST JOSEPH      CLOUDY    34  26  72 S13       29.94F WCI  25
CHILLICOTHE      N/A     34  23  64 SE8       29.99F WCI  27
KIRKSVILLE     MIX PCPN  30  23  75 S15       30.03F WCI  19

$$
MOZ066>068-077>081-088>096-101>105-030800-
...SOUTHWEST MISSOURI...

CITY           SKY/WX    TMP DP  RH WIND       PRES   REMARKS
SPRINGFIELD    CLOUDY    34  24  67 S16       30.00F WCI  24
JOPLIN         CLOUDY    36  31  82 S9        30.01F WCI  29

$$
MOZ032>034-039>042-045>050-055>058-069>072-030800-
...CENTRAL MISSOURI...

CITY           SKY/WX    TMP DP  RH WIND       PRES   REMARKS
COLUMBIA       CLOUDY    33  22  63 SE8       30.01F WCI  26
JEFFERSON CITY CLOUDY    34  22  61 E9        30.04F WCI  27
ROLLA          CLOUDY    33  22  63 S18       30.01F WCI  22
SEDALIA        CLOUDY    36  25  64 S13       30.01F WCI  27
OSAGE BEACH    CLOUDY    36  23  60 S8        30.03F WCI  29

$$
MOZ051-052-059>065-030800-
...EAST CENTRAL MISSOURI...

CITY           SKY/WX    TMP DP  RH WIND       PRES   REMARKS
ST LOUIS INTL  CLOUDY    33  21  61 SE9       30.12F WCI  25
SPIRIT OF STL  CLOUDY    32  21  64 SE6       30.09F WCI  26
ST CHARLES     CLOUDY    31  23  72 SE9       30.11F WCI  23

$$
MOZ072>076-082>087-097>100-106>115-030800-
...SOUTH CENTRAL AND SOUTHEAST MISSOURI...

CITY           SKY/WX    TMP DP  RH WIND       PRES   REMARKS
CAPE GIRARDEAU CLOUDY    35  26  69 SE7       30.16F WCI  29
FARMINGTON     CLOUDY    34  21  60 S12       30.14F WCI  25
POPLAR BLUFF   CLOUDY    34  25  69 E3        30.15F
WEST PLAINS    CLOUDY    31  24  75 S10       30.10F WCI  22

$$


USA.gov is the U.S. government's official web portal to all federal, state and local government web resources and services.